Regional Weather Roundup
Issued by NWS

Home | Current Version | Previous Version | Text Only | Print | Product List | Glossary On
Versions: 1 2 3 4 5 6 7 8 9 10 11 12 13 14 15 16 17 18 19 20 21 22 23 24 25 26 27 28 29 30 31 32 33 34 35 36 37 38 39 40 41 42 43 44 45 46 47 48 49 50
000
ASUS46 KSTO 231615
RWRCA

NORTHERN AND CENTRAL CA REGIONAL WEATHER ROUNDUP
NATIONAL WEATHER SERVICE SACRAMENTO CA
900 AM PDT SUN APR 23 2017

NOTE: FAIR INDICATES FEW OR NO CLOUDS BELOW 12,000 FEET WITH NO
SIGNIFICANT WEATHER AND/OR OBSTRUCTIONS TO VISIBILITY.

CAZ001-003-231700-
NORTHWEST AREA

CITY           SKY/WX    TMP DP  RH WIND       PRES   REMARKS
CRESCENT CITY  CLOUDY    50  49  96 S9        30.05R
UKIAH          SUNNY     52  43  71 CALM      30.01F
$$

CAZ006-505>513-231700-
BAY AREA

CITY           SKY/WX    TMP DP  RH WIND       PRES   REMARKS
SANTA ROSA     SUNNY     58  44  60 N7        29.98S
SAN RAFAEL     N/A       54  MM  MM MISG
NAPA           SUNNY     58  45  62 CALM      29.98F
CONCORD        SUNNY     59  44  57 W7G17     29.99S
OAKLAND CITY   N/A      MM  MM  MM MISG
OAKLAND        MOSUNNY   60  46  59 W9        30.01S
SAN FRAN CITY  N/A       56  MM  66 MISG
SAN FRAN ARPT  MOSUNNY   57  46  66 W14       30.01S
LIVERMORE      SUNNY     57  44  62 W10       29.99S
HAYWARD        SUNNY     59  45  59 W7        30.01R
REDWOOD CITY   N/A       59  MM  61 MISG
MOFFETT ARPT   SUNNY     59  45  59 NW7       30.02S
SAN JOSE ARPT  MOSUNNY   59  46  62 NW6       30.02S
$$
CAZ034-037-514>518-231700-
CENTRAL COAST

CITY           SKY/WX    TMP DP  RH WIND       PRES   REMARKS
WATSONVILLE    SUNNY     55  50  83 CALM      30.03S
SALINAS        MOSUNNY   57  48  72 SW8       30.03R
MONTEREY       MOSUNNY   57  48  72 W7        30.04S
SAN LUIS OBISP MOSUNNY   64  45  49 NW9       29.94F
SANTA MARIA    MOSUNNY   58  51  78 NW9       29.94F
$$
CAZ015-016-231700-
NORTHERN SACRAMENTO VALLEY

CITY           SKY/WX    TMP DP  RH WIND       PRES   REMARKS
REDDING        SUNNY     58  42  55 CALM      29.94S
RED BLUFF      SUNNY     61  39  44 N9        29.96S
OROVILLE       PTSUNNY   56  47  71 S6        29.97S
$$
CAZ016>018-231700-
SOUTHERN SACRAMENTO VALLEY

CITY           SKY/WX    TMP DP  RH WIND       PRES   REMARKS
AUBURN         SUNNY     54  46  76 SE16      29.95S
BEALE AFB      SUNNY     57  49  73 SE8       29.94S
LINCOLN        FAIR      57  45  62 SE8       29.95S
MARYSVILLE     SUNNY     56  48  74 SE6       29.97R
SAC INTL ARPT  MOSUNNY   56  50  80 CALM      29.95R
MATHER AIRPORT SUNNY     55  48  76 S6        29.96S
DOWNTOWN SAC   N/A       58  MM  MM MISG
SAC EXEC ARPT  SUNNY     57  49  74 SE3       29.96R
VACAVILLE      SUNNY     63  44  50 NW6       29.96S
TRAVIS AFB     SUNNY     58  45  60 SW12      29.94R
$$
CAZ019>021-231700-
SAN JOAQUIN VALLEY

CITY           SKY/WX    TMP DP  RH WIND       PRES   REMARKS
STOCKTON       MOSUNNY   58  48  69 W10       29.97R
MODESTO        PTSUNNY   58  47  66 N7        29.97R
MERCED         MOSUNNY   61  43  51 NW10      29.96S
LEMOORE        MOSUNNY   60  39  45 NW12      29.98F
FRESNO         MOSUNNY   58  42  55 NW10      29.97S
HANFORD        MOSUNNY   60  40  47 NW16G24   29.97S
PORTERVILLE      N/A     60  43  53 VRB3      29.99R
BAKERSFIELD    SUNNY     62  43  49 VRB6      29.99R
$$
CAZ011-012-071-231700-
NORTHERN MOUNTAINS

CITY           SKY/WX    TMP DP  RH WIND       PRES   REMARKS
YREKA          SUNNY     47  36  65 CALM      29.98S
MOUNT SHASTA   SUNNY     50  37  61 VRB6      29.94F
ALTURAS        CLOUDY    45  41  86 W3        29.94S
$$
CAZ011-012-071-231700-
SIERRA NEVADA MTNS

CITY           SKY/WX    TMP DP  RH WIND       PRES   REMARKS
BLUE CANYON    SUNNY     46  27  47 VRB5      29.98S
TRUCKEE        SUNNY     48  19  32 N3        29.96F
TAHOE VLY ARPT SUNNY     50  13  22 S13G20    29.95S
MAMMOTH LAKES  FAIR      53   8  16 S23G36    29.95R
$$



USA.gov is the U.S. government's official web portal to all federal, state and local government web resources and services.